This is the latest recevied weather packets stored in our database for station/object W5ITZ. If no packets are shown the sender has not sent any weather packets the latest 10 day(s).
| Time | Temp. | Humidity | Pressure | Rain* | Wind** | Luminosity | Snow |
|---|---|---|---|---|---|---|---|
| 1788047102 | 31.67° C | 66% | 1014.6 hPa | 0 mm | - | 93 W/m² | - |
| 1788046797 | 31.67° C | 65% | 1014.6 hPa | 0 mm | - | 105 W/m² | - |
| 1788046496 | 32.22° C | 63% | 1014.6 hPa | 0 mm | - | 117 W/m² | - |
| 1788046190 | 32.22° C | 63% | 1014.5 hPa | 0 mm | - | 130 W/m² | - |
| 1788045884 | 32.22° C | 64% | 1014.4 hPa | 0 mm | - | 150 W/m² | - |
| 1788045579 | 32.22° C | 64% | 1014.6 hPa | 0 mm | - | 165 W/m² | - |
| 1788045275 | 32.22° C | 64% | 1014.3 hPa | 0 mm | - | 187 W/m² | - |
| 1788044970 | 32.78° C | 63% | 1014.4 hPa | 0 mm | - | 213 W/m² | - |
| 1788044669 | 32.78° C | 62% | 1014.7 hPa | 0 mm | - | 232 W/m² | - |
| 1788044369 | 32.78° C | 60% | 1014.8 hPa | 0 mm | - | 267 W/m² | - |
| 1788044064 | 32.78° C | 61% | 1014.7 hPa | 0 mm | - | 313 W/m² | - |
| 1788043760 | 32.78° C | 61% | 1014.5 hPa | 0 mm | - | 301 W/m² | - |
| 1788043459 | 32.78° C | 61% | 1014.6 hPa | 0 mm | - | 312 W/m² | - |
| 1788043155 | 32.78° C | 60% | 1014.7 hPa | 0 mm | - | 330 W/m² | - |
| 1788042850 | 33.33° C | 59% | 1014.8 hPa | 0 mm | - | 344 W/m² | - |
| 1788042549 | 33.33° C | 59% | 1014.6 hPa | 0 mm | - | 367 W/m² | - |
| 1788042244 | 33.33° C | 58% | 1014.5 hPa | 0 mm | - | 396 W/m² | - |
| 1788041944 | 33.89° C | 58% | 1014.3 hPa | 0 mm | - | 416 W/m² | - |
| 1788041640 | 33.33° C | 59% | 1014.3 hPa | 0 mm | - | 420 W/m² | - |
| 1788041335 | 33.89° C | 58% | 1014.5 hPa | 0 mm | - | 436 W/m² | - |
| 1788041034 | 33.89° C | 56% | 1014.4 hPa | 0 mm | - | 476 W/m² | - |
| 1788040732 | 33.89° C | 55% | 1014.5 hPa | 0 mm | - | 493 W/m² | - |
| 1788040426 | 33.89° C | 55% | 1014.5 hPa | 0 mm | - | 540 W/m² | - |
| 1788040123 | 33.89° C | 55% | 1014.4 hPa | 0 mm | - | 562 W/m² | - |
| 1788039812 | 34.44° C | 54% | 1014.3 hPa | 0 mm | - | 599 W/m² | - |
* Rain latest hour (hover to see other rain measurements)
** Current wind speed in m/s (hover to see current wind gust speed)